This is the latest recevied weather packets stored in our database for station/object KC5DAQ-25. If no packets are shown the sender has not sent any weather packets the latest 10 day(s).
| Time | Temp. | Humidity | Pressure | Rain* | Wind** | Luminosity | Snow |
|---|---|---|---|---|---|---|---|
| 1777401713 | 31.67° C | 66% | 1004.1 hPa | 0 mm | - | 499 W/m² | - |
| 1777401511 | 32.22° C | 65% | 1004.1 hPa | 0 mm | - | 517 W/m² | - |
| 1777401449 | 32.22° C | 65% | 1004.1 hPa | 0 mm | - | - | - |
| 1777401389 | 32.22° C | 65% | 1004.1 hPa | 0 mm | - | 1217 W/m² | - |
| 1777401321 | 32.22° C | 67% | 1004.1 hPa | 0 mm | - | 1217 W/m² | - |
| 1777401260 | 32.22° C | 67% | 1004.2 hPa | 0 mm | - | 1217 W/m² | - |
| 1777401197 | 32.22° C | 65% | 1004.2 hPa | 0 mm | - | 1217 W/m² | - |
| 1777401136 | 32.78° C | 65% | 1004.2 hPa | 0 mm | - | 1217 W/m² | - |
| 1777401073 | 32.78° C | 65% | 1004.1 hPa | 0 mm | - | 1217 W/m² | - |
| 1777401005 | 32.78° C | 66% | 1004.2 hPa | 0 mm | - | 1217 W/m² | - |
| 1777400943 | 32.78° C | 66% | 1004.2 hPa | 0 mm | - | 1217 W/m² | - |
| 1777400885 | 32.78° C | 65% | 1004.2 hPa | 0 mm | - | 1217 W/m² | - |
| 1777400823 | 32.78° C | 70% | 1004.2 hPa | 0 mm | - | 1217 W/m² | - |
| 1777400765 | 32.78° C | 70% | 1004.2 hPa | 0 mm | - | 1166 W/m² | - |
| 1777400706 | 32.78° C | 68% | 1004.3 hPa | 0 mm | - | 1166 W/m² | - |
| 1777400643 | 32.78° C | 68% | 1004.3 hPa | 0 mm | - | 1175 W/m² | - |
| 1777400585 | 32.78° C | 67% | 1004.2 hPa | 0 mm | - | 1122 W/m² | - |
| 1777400524 | 32.78° C | 67% | 1004.3 hPa | 0 mm | - | 1171 W/m² | - |
| 1777400463 | 32.78° C | 67% | 1004.2 hPa | 0 mm | - | 1071 W/m² | - |
| 1777400405 | 32.78° C | 68% | 1004.2 hPa | 0 mm | - | 1071 W/m² | - |
| 1777400343 | 32.22° C | 67% | 1004.3 hPa | 0 mm | - | 1071 W/m² | - |
| 1777400283 | 32.22° C | 67% | 1004.3 hPa | 0 mm | - | 1064 W/m² | - |
| 1777400223 | 32.22° C | 68% | 1004.3 hPa | 0 mm | - | 1064 W/m² | - |
| 1777400165 | 32.22° C | 68% | 1004.3 hPa | 0 mm | - | 1150 W/m² | - |
| 1777400104 | 32.22° C | 68% | 1004.4 hPa | 0 mm | - | 1046 W/m² | - |
* Rain latest hour (hover to see other rain measurements)
** Current wind speed in m/s (hover to see current wind gust speed)